Content
SEND FEEDBACK

Daily
Averages
Monthly
Summary
Martinique

LA MEDAILLE, MARTINIQUE


Home > Caribbean > Martinique
Elevation: 472 feet     Latitude: 14 36N     Longitude: 061 06W

WEATHER
 
SELECT A DAY
Number of Records: 207,606;   Date Range: 6/30/96 - 12/16/14
 
SHARE

PRINT THIS DATA

[ ← Previous Day ]
WEATHER ALMANAC - JANUARY 23, 2013
[ Next Day → ]
[ °C ]   °F
Weather ElementAverageHighLow
Temperature78.4 °F84.2 °F (2:30 pm)75.2 °F (5:30 am)
Dewpoint68.8 °F71.6 °F (10:37 am)66.2 °F (4:30 pm)
Humidity72.1 %89 % (10:37 am)60 % (8:00 am)
Barometer30.02 in30.09 in (10:00 am)29.98 in (2:00 am)
Wind Speed10.8 mph19.6 mph (2:30 pm)
Weather ElementAverage
Visibility6.6 mi
Wind DirectionENE (65 °)

Weather ElementTotal
Precipitation---
Cooling Degree Days14.7 (Base 65)
Growing Degree Days29.7 (Base 50)
Averaged from 50 records on January 23, 2013
WEATHER CONDITIONS BREAKOUT
WIND DIRECTION BREAKOUT
WEATHER BY HOUR - JANUARY 23, 2013
[ °C ]   °F
Local TimeTemperatureDewpointHumidityBarometerVisibilityWind DirectionWind SpeedGust SpeedPrecipitationEventsConditions
12:30 AM77.0 °F68.0 °F74 %30.01 in6.2 miENE (70°)11.5 mphScattered Clouds
1:00 AM77.0 °F68.0 °F74 %30.01 in6.2 miENE (70°)10.4 mphScattered Clouds
1:30 AM77.0 °F68.0 °F74 %30.01 in6.2 miENE (70°)10.4 mphMostly Cloudy
2:00 AM77.0 °F67.0 °F65 %30.00 in25.0 miENE (70°)8.1 mphClear
2:00 AM77.0 °F68.0 °F74 %29.98 in6.2 miENE (70°)8.1 mphScattered Clouds
2:30 AM77.0 °F68.0 °F74 %29.98 in6.2 miENE (70°)13.8 mphMostly Cloudy
3:00 AM77.0 °F68.0 °F74 %29.98 in6.2 miENE (70°)11.5 mphPartly Cloudy
3:30 AM77.0 °F68.0 °F74 %29.98 in6.2 miENE (70°)10.4 mphPartly Cloudy
4:00 AM77.0 °F68.0 °F74 %29.98 in6.2 miENE (70°)9.2 mphMostly Cloudy
4:30 AM77.0 °F68.0 °F74 %29.98 in6.2 miENE (70°)9.2 mphPartly Cloudy
5:00 AM77.0 °F68.0 °F74 %30.01 in6.2 miENE (70°)6.9 mphScattered Clouds
5:30 AM75.2 °F68.0 °F78 %30.01 in6.2 miENE (60°)5.8 mph
6:00 AM75.2 °F68.0 °F78 %30.01 in6.2 miENE (70°)5.8 mph
6:30 AM75.2 °F68.0 °F78 %30.01 in6.2 miVariable2.3 mph
7:00 AM75.2 °F68.0 °F78 %30.04 in6.2 miCalmPartly Cloudy
7:30 AM77.0 °F69.8 °F78 %30.04 in6.2 miCalmPartly Cloudy
8:00 AM80.0 °F69.0 °F60 %30.07 in22.0 miEast (80°)8.1 mphClear
8:00 AM80.6 °F68.0 °F65 %30.06 in6.2 miEast (80°)9.2 mphPartly Cloudy
8:30 AM82.4 °F69.8 °F66 %30.06 in6.2 miENE (70°)11.5 mphScattered Clouds
9:00 AM82.4 °F69.8 °F66 %30.06 in6.2 miENE (70°)13.8 mphScattered Clouds
9:30 AM82.4 °F68.0 °F62 %30.06 in6.2 miENE (60°)13.8 mphScattered Clouds
10:00 AM78.8 °F69.8 °F74 %30.09 in6.2 miENE (60°)17.3 mphMostly Cloudy
10:37 AM75.2 °F71.6 °F89 %30.09 in6.2 miNE (40°)9.2 mphMostly Cloudy
11:00 AM78.8 °F71.6 °F78 %30.09 in6.2 miNNE (30°)5.8 mphMostly Cloudy
11:30 AM75.2 °F71.6 °F89 %30.06 in4.3 miEast (80°)16.1 mphMostly Cloudy
12:00 PM77.0 °F71.6 °F83 %30.06 in4.3 miENE (70°)15.0 mphScattered Clouds
1:00 PM78.8 °F69.8 °F74 %30.04 in4.3 miEast (90°)12.7 mphMostly Cloudy
1:34 PM80.6 °F69.8 °F70 %30.01 in4.3 miESE (120°)5.8 mphMostly Cloudy
2:00 PM81.0 °F71.0 °F65 %30.02 in4.0 miEast (80°)8.1 mphPartly Cloudy
2:00 PM80.6 °F71.6 °F74 %30.01 in4.3 miEast (80°)8.1 mphScattered Clouds
2:30 PM84.2 °F69.8 °F62 %29.98 in4.3 miEast (90°)19.6 mphScattered Clouds
3:00 PM82.4 °F68.0 °F62 %29.98 in4.3 miEast (80°)18.4 mphScattered Clouds
3:30 PM82.4 °F69.8 °F66 %29.98 in6.2 miEast (80°)19.6 mphPartly Cloudy
4:00 PM82.4 °F69.8 °F66 %29.98 in6.2 miEast (80°)18.4 mphPartly Cloudy
4:30 PM80.6 °F66.2 °F61 %29.98 in6.2 miENE (70°)17.3 mphPartly Cloudy
5:00 PM80.6 °F66.2 °F61 %30.01 in6.2 miENE (60°)15.0 mphPartly Cloudy
5:30 PM80.6 °F66.2 °F61 %30.01 in6.2 miENE (70°)13.8 mphPartly Cloudy
6:00 PM78.8 °F68.0 °F69 %30.01 in6.2 miENE (60°)10.4 mphPartly Cloudy
6:30 PM78.8 °F68.0 °F69 %30.01 in6.2 miENE (60°)10.4 mphPartly Cloudy
7:00 PM78.8 °F68.0 °F69 %30.01 in6.2 miENE (60°)10.4 mphScattered Clouds
7:30 PM78.8 °F68.0 °F69 %30.01 in6.2 miENE (70°)9.2 mphScattered Clouds
8:00 PM77.0 °F68.0 °F67 %30.04 in9.0 miENE (70°)9.2 mphPartly Cloudy
8:00 PM77.0 °F68.0 °F74 %30.04 in6.2 miENE (70°)9.2 mphScattered Clouds
8:30 PM77.0 °F69.8 °F78 %30.04 in6.2 miENE (60°)10.4 mphScattered Clouds
9:00 PM75.2 °F69.8 °F83 %30.04 in6.2 miENE (60°)12.7 mphRainLight Rain
9:30 PM77.0 °F69.8 °F78 %30.04 in6.2 miENE (60°)9.2 mphMostly Cloudy
10:00 PM77.0 °F69.8 °F78 %30.04 in6.2 miENE (60°)11.5 mphMostly Cloudy
10:30 PM77.0 °F68.0 °F74 %30.04 in6.2 miENE (60°)12.7 mphMostly Cloudy
11:00 PM77.0 °F68.0 °F74 %30.04 in6.2 miENE (60°)12.7 mphMostly Cloudy
11:30 PM77.0 °F68.0 °F74 %30.04 in6.2 miENE (60°)11.5 mphScattered Clouds
Hourly data recorded from TFFF, located miles away from La Medaille, Martinique







STORIES FROM OUR PARTNERS